Location: WHS+Essen
(51.3947°N, 6.9794°E)
Time: 15:49:07
(UTC+02:00)

ISS - Pass Details

Date: 21 May 2019
Orbit: 407 x 419 km, 51.6° (Epoch: 26 June)

Event Time Altitude Azimuth Distance (km) Brightness Sun altitude
Rises 00:10:41 0° 263° (W) 2,359 0.2 -16.5°
Reaches altitude 10° 00:12:46 10° 264° (W) 1,498 -0.8 -16.6°
Maximum altitude 00:16:08 87° 354° (N) 425 -3.8 -16.8°
Drops below altitude 10° 00:19:32 10° 84° (E) 1,506 -1.1 -16.9°
Enters shadow 00:22:02 -1° 85° (E) 2,539 0.1 -17.1°
